Showing default

GEESAT 2-03, 58907

Orbit data source: Space-Track

GEESAT 2-03, 58907 is a payload satellite owned by GeeSpace (CN) in LEO that was launched on Fri, 02 Feb 2024 UTC via a CHANG ZHENG 2C launch vehicle from the Xichang Space Center, China (XSC). Payload-class satellites include a variety of spacecraft equipped with specific instruments for various scientific and technological missions. These include communications satellites like Starlink; space stations such as the ISS; scientific satellites like the Hubble; Earth observation satellites from companies like Planet Labs, Umbra, and HawkEye 360; GPS; miniature CubeSats for education and research; and military/defense satellites.

Loading next visibility...
Identifier
58907, 2024-023C
Orbit
LEO
Last TLE update
8 hours ago
Origin
Manufacturer
Taizhou Xingkong
Mission
Operational Commercial Navigation
Bus & Motor
GEESAT1, Unknown motor
Mass
130 kg wet, 130 kg dry
Launch date (UTC)
2024-02-02 (1 year ago)
Launch vehicle
CHANG ZHENG 2C
Launch site
Xichang Space Center, China (XSC)
Object type
Payload
Rocket body
Debris
Shape & HBR
Box + 2 Pan, 2 m
Radar Cross Section
0.833 m², Medium (>0.1 m² and < 1m²)

Expand to show TLE details & history

TLE from 8 hours ago
0 GEESAT 2-03
1 58907U 24023C   25184.17280103  .00000671  00000-0  83713-4 0  9992
2 58907  50.0002 173.1777 0006140 109.7708 250.3897 14.94858896 77071
Epoch: 2025-07-03T04:08Z
TLE epoch observation values (Epoch: 2025-07-03T04:08:50.008Z)
Latitude
-0.00009°
Longitude
-170.4741°
Altitude
584.794 km
Speed
7.568 km/s
True Right ascension
11h 32m 42s
True Declination
0° 00' 00"
Sunlit
Object was in daylight at epoch
Visualization orbit readout
Latitude
-46.86974°
Longitude
125.03135°
Altitude
602.743 km
Speed
7.556 km/s
Apparent Right ascension
09h 27m 54s
Apparent Declination
-48° 20' 48"
Sunlit
Object is in daylight
Visualization observer readout
Local Sidereal Time
23:37:27
Azimuth
120.886° SE
Elevation
-65.491°
Doppler factor
1
Orbital elements
Apogee altitude
587.847 km
Perigee altitude
579.298 km
Semi-major axis
6,961.71 km
Eccentricity
0.00061
Inclination
50.0002°
RAAN
173.1777°
Arg. of periapsis
109.7708°
True anomaly
Unknown
Mean anomaly
250.3897°
Eccentric anomaly
Unknown
Mean motion
3.73654 °/min
Orbital period
96.35 mins
BSTAR
0.000083713
Loading maneuver chart data...
Loading SW <> Apogee altitude chart data...
Loading historical data...
Loading historical data...
Loading historical data...
Loading historical data...
Loading historical data...
Loading historical data...
Loading historical data...

GEESAT 2-03 Visibility forecast

Observer location: undefined°, undefined°

Span
Click to sort rows by Start time (UTC) header in descending order
Start Az.
Max El. time (UTC)
Max El. Az.
Max El.
End time (UTC)
End Az.
6 mins2025-07-04 01:09:53.344Z181.664° SSW2025-07-04 01:12:53.344Z125.983° SE22.988°2025-07-04 01:15:53.344Z79.738° E
7 mins2025-07-04 02:49:53.344Z254.426° W2025-07-04 02:52:53.344Z328.739° NNW40.462°2025-07-04 02:56:53.344Z49.724° ENE
5 mins2025-07-04 04:31:53.344Z308.258° NW2025-07-04 04:33:53.344Z343.919° N21.481°2025-07-04 04:36:53.344Z36.856° NE
5 mins2025-07-04 06:13:53.344Z333.858° NNW2025-07-04 06:15:53.344Z12.791° NNE21.821°2025-07-04 06:18:53.344Z61.842° ENE
7 mins2025-07-04 07:53:53.344Z312.62° NW2025-07-04 07:56:53.344Z19.793° NNE41.109°2025-07-04 08:00:53.344Z110.61° ESE
4 mins2025-07-04 09:35:53.344Z256.536° W2025-07-04 09:36:53.344Z236.842° WSW21.716°2025-07-04 09:39:53.344Z181.446° SSW
|